Location: Dyes Branch
(31.8832°N, 97.6395°W)
Time: 05:48:01
(UTC+00:00)

Daily predictions for brighter satellites

Satellite Brightness Start Highest point End
(mag) Time Altitude Azimuth Time Altitude Azimuth Time Altitude Azimuth
NOSS 2-3 (D) 3.1 00:00:00 10° SSW 00:03:57 87° ESE 00:07:37 10° NNE
Cosmos 2263 Rocket 3.8 00:06:32 10° NNE 00:08:55 13° NE 00:10:29 11° ENE
COSMO-SKYMED 1 3.6 00:05:34 10° NE 00:08:56 24° E 00:12:19 10° SSE
Thor Agena Rocket 3.9 00:05:15 10° S 00:10:28 74° WSW 00:15:40 10° NNW
Cosmos 1733 4.4 00:11:24 10° WNW 00:12:14 13° W 00:13:04 10° SW
Cosmos 1726 Rocket 3.6 00:15:08 10° S 00:19:44 69° E 00:24:20 10° NNE
SAR-Lupe-4 3.5 00:19:02 10° SSE 00:22:34 88° WSW 00:26:08 10° NNW
Cosmos 2227 Rocket 2.9 00:17:41 10° N 00:22:36 30° ENE 00:27:30 10° SE
Okean 1-7 Rocket 3.4 00:18:55 10° N 00:23:17 72° E 00:27:36 10° SSE
IRS-1C 4.1 00:19:54 10° SSE 00:25:12 89° WSW 00:30:33 10° NNW
ATLAS 5 CENTAUR R/B 4.1 00:21:13 10° SSW 00:26:45 85° ESE 00:50:15 10° NE
USA 290 2.3 00:25:20 10° NNW 00:28:34 79° WSW 00:31:48 10° SSE
Cosmos 1697 Rocket 3.6 00:24:22 10° SW 00:29:45 49° WNW 00:35:11 10° N
CZ-2D R/B 3.2 00:27:54 10° S 00:30:58 61° W 00:34:04 10° NNW
SAR-Lupe-1 4.2 00:28:20 10° S 00:31:54 77° W 00:35:30 10° NNW
ATLAS CENTAUR R/B 0.8 00:30:04 10° NNW 00:33:12 72° WSW 00:36:13 10° SSE
Cosmos 1602 Rocket 4.4 00:29:01 10° NNW 00:33:15 52° W 00:37:25 10° S
YAOGAN 1 3.3 00:29:47 10° SE 00:33:27 29° ENE 00:37:07 10° NNE
SKYMED 2 3.5 00:30:40 10° NNE 00:35:01 88° ESE 00:39:21 10° SSW
Cosmos 724 4.2 00:29:55 10° NNW 00:35:53 73° ENE 00:41:41 10° SSE
SMAP 4.4 00:32:59 10° S 00:37:22 42° W 00:41:48 10° NNW
H-II Stage 2 3.5 00:26:24 10° W 00:38:11 50° SSW 00:41:02 13° SE
Meteor 2-20 4.4 00:32:26 10° S 00:38:34 77° E 00:44:43 10° N
Cosmos 1898 Rocket 3.6 00:35:39 10° S 00:40:36 51° ESE 00:44:15 18° NNE
Intelsat 5-1 Rocket 4.0 00:45:37 10° SSW 00:46:05 10° S 00:46:36 10° S
Cosmos-2242 3.0 00:43:46 10° S 00:47:53 57° E 00:50:38 20° NNE
Cosmos 1953 Rocket 3.4 00:52:01 10° N 00:56:27 68° E 01:00:51 10° SSE
Meteor 2-10 4.3 00:51:17 10° N 00:56:30 47° E 01:01:51 10° SSE
BREEZE-M DEB (TANK) 4.4 00:55:55 10° W 00:59:41 21° NW 01:00:59 16° N
Meteor 2-20 Rocket 4.4 00:54:16 10° S 01:00:38 82° E 01:06:47 10° N
Helios 1A Rocket 2.4 00:59:45 39° N 01:00:53 83° WNW 01:04:16 10° SSW
Cosmos 372 Rocket 4.1 00:56:38 10° SSW 01:01:47 75° WNW 01:06:01 15° N
Cosmos 1937 Rocket 3.4 00:57:07 10° S 01:02:13 60° ESE 01:04:15 35° NE
Meteor 1-26 Rocket 4.0 00:57:25 10° S 01:02:53 79° E 01:07:43 13° N
Aureole 1 Rocket 3.6 01:01:25 10° SSW 01:05:10 54° WNW 01:09:04 15° N
Cosmos 1655 Rocket 4.0 00:59:08 10° N 01:05:22 84° W 01:11:34 10° S
Cosmos 1867 3.4 01:00:29 10° NNW 01:05:55 70° ENE 01:11:18 10° SE
Cosmos 967 Rocket 4.4 01:05:44 10° SSW 01:12:00 73° ESE 01:14:47 35° NE
SL-16 R/B 3.5 01:07:30 10° SSE 01:10:23 23° SE 01:10:23 23° SE
Cosmos 2297 Rocket 3.9 01:10:18 10° NW 01:15:18 33° WSW 01:20:17 10° SSW
OceanSat 1 rocket 4.4 01:11:54 10° SSE 01:16:39 70° ENE 01:21:22 10° N
Cosmos 2058 Rocket 3.8 01:12:40 10° SSW 01:17:01 54° W 01:20:44 14° N
NOAA 6 3.9 01:12:25 10° SSE 01:17:26 64° ENE 01:22:29 10° N
SPOT 1/Viking Rocket 4.4 01:18:26 10° S 01:23:27 49° W 01:28:29 10° NNW
USA 81 4.2 01:19:23 10° N 01:24:38 71° W 01:29:51 10° S
BREEZE-M DEB (TANK) 4.3 01:20:07 10° S 01:24:38 37° ESE 01:24:47 37° ESE
BlueWalker 3 3.7 01:23:25 10° WNW 01:26:35 28° SW 01:28:00 21° SSW
Hubble Space Telescope 1.9 01:26:43 10° WSW 01:29:22 34° SSW 01:29:22 34° SSW
PSLV R/B 3.9 01:28:32 10° S 01:32:28 57° W 01:33:07 50° WNW
Cosmos 1980 Rocket 3.7 01:27:28 10° SW 01:32:31 33° WNW 01:36:57 13° N
Cosmos 2084 Rocket 4.2 01:31:52 10° NW 01:35:55 49° WSW 01:36:16 48° SW
CZ-4C R/B 3.6 01:33:10 10° NW 01:40:58 64° WSW 01:49:58 10° SSE
Cosmos 2369 4.4 01:35:47 10° SW 01:41:20 53° WNW 01:43:37 33° N
BREEZE M DEB (TANK) 4.1 01:41:15 10° NW 01:43:48 26° NW 01:43:48 26° NW
Cosmos 2263 Rocket 2.5 01:47:42 10° NNW 01:52:20 59° NW 01:52:20 59° NW
COSMOS 2455 2.9 01:50:35 10° SSW 01:56:21 73° W 01:56:21 73° W
Cosmos 2333 Rocket 4.1 01:59:47 10° S 02:01:21 19° S 02:01:21 19° S
Cosmos 2227 Rocket 4.0 02:01:42 10° NW 02:06:28 29° WSW 02:11:15 10° SSW
Centaur D-1A AC-31 4.2 02:33:39 10° WNW 03:24:06 44° SW 03:24:39 43° SW
CZ-3 R/B 4.0 08:32:45 10° W 09:25:23 78° SSW 09:37:19 10° ESE
CZ-3 Stage 3 3.7 10:07:38 84° SSE 10:07:38 84° SSE 10:35:32 10° E
Cosmos 1980 Rocket 3.2 10:32:10 41° ESE 10:32:10 41° ESE 10:36:20 10° SE
COSMOS 2455 3.8 10:59:44 29° N 11:02:20 44° ENE 11:08:01 10° SE
SL-24 R/B - RUBIN 2 4.3 11:05:51 47° SE 11:05:51 47° SE 11:09:07 10° SSE
Cosmos 489 Rocket 4.3 11:06:46 59° SW 11:07:56 75° WNW 11:14:13 10° NNE
Nadezhda 4 Rocket 3.9 11:05:12 10° S 11:11:32 89° WNW 11:17:50 10° N
Cosmos 1898 Rocket 4.2 11:10:27 28° N 11:12:59 51° ENE 11:18:06 10° SSE
H-II Stage 2 4.1 11:15:27 36° S 11:15:27 36° S 11:17:49 10° ESE
Cosmos 2098 Rocket 3.7 11:17:16 60° WSW 11:17:16 60° WSW 11:22:16 10° S
Cosmos 1933 3.7 11:19:08 56° ESE 11:19:08 56° ESE 11:22:32 10° SSE
IRS-1D 3.8 11:14:57 10° NNE 11:19:59 68° ESE 11:25:06 10° S
OAO 2 Rocket 3.6 11:23:47 48° SW 11:25:04 66° SSE 11:30:11 10° ENE
Cosmos 372 Rocket 3.7 11:30:24 44° NNW 11:32:02 81° WSW 11:37:05 10° SSE
Cosmos 1937 Rocket 4.0 11:29:56 16° N 11:33:52 57° ENE 11:38:54 10° SSE
Meteor 2-3 Rocket 3.6 11:32:30 10° SSW 11:38:14 76° W 11:43:56 10° N
Aureole 1 Rocket 4.3 11:35:17 21° NNW 11:40:27 65° WSW 11:47:41 10° S
COSMOS 2406 3.8 11:44:05 33° NW 11:44:05 33° NW 11:48:29 10° N
Cosmos 1606 Rocket 3.4 11:42:54 31° NNW 11:44:54 69° W 11:49:14 10° S
Cosmos 2237 4.2 11:41:41 17° NNW 11:46:12 81° ENE 11:51:53 10° SSE
OAO 3 Copernicus 4.2 11:45:52 41° W 11:47:31 70° N 11:52:31 10° ENE
CZ-4 R/B 3.6 11:43:26 10° N 11:48:02 70° WNW 11:52:36 10° SSW
Centaur D AC-28 3.8 11:46:18 22° W 11:50:30 31° SW 11:54:35 10° SSE
ATLAS 2AS CENTAUR R/B 3.8 11:44:12 10° S 11:51:00 48° ESE 11:57:39 10° NE
Cosmos 1814 Rocket 4.3 11:46:55 10° S 11:52:03 70° ESE 11:57:18 10° NNE
Tiangong -1.8 11:51:40 49° N 11:52:06 55° NNE 11:55:17 10° ESE
Centaur D-1AR AC-48 4.1 11:35:23 14° WSW 11:52:11 44° SSW 11:57:07 10° ESE
